Location: Brivio
(45.7333°N, 9.4500°E)
Time: 00:38:12
(UTC+00:00)

CSL-04 Rocket - Pass Details

Date: 18 October 2019
Orbit: 805 x 861 km, 99.0° (Epoch: 17 November)

Event Time Altitude Azimuth Distance (km) Brightness Sun altitude
Rises 17:57:34 0° 170° (S) 3,422 6.7 -15.7°
Reaches altitude 10° 17:59:57 10° 173° (S) 2,486 6.0 -16.1°
Maximum altitude 18:05:28 70° 257° (WSW) 906 4.0 -17.1°
Drops below altitude 10° 18:10:58 10° 341° (NNW) 2,478 6.4 -18.0°
Sets 18:13:21 0° 344° (NNW) 3,410 7.1 -18.4°
